{"data":{"norad_id":55632,"intl_designator":"2023-021E","name":"STARLINK-5546","alt_names":[],"object_type":"PAYLOAD","status":"ACTIVE","operator":null,"country":"US","launch_date":"2023-02-17","launch_site_code":"AFWTR","launch_vehicle":null,"mission":null,"orbit_class":"UNKNOWN","rcs_meters":null,"size_class":null,"mass_kg":null,"dimensions":null,"purposes":["comms"],"wikipedia_slug":null,"has_3d_model":false,"image_url":null,"decayed_at":null,"tle_current":{"epoch":"2026-05-25T00:49:12.337248Z","epoch_age_seconds":82796,"freshness":"FRESH","line1":"1 55632U 23021E   26145.03417057 -.00000397  00000+0 -25486-4 0  9993","line2":"2 55632  69.9997  11.9742 0002716 268.0931  91.9917 14.98336243179737","mean_motion":14.98336243,"eccentricity":0.0002716,"inclination_deg":69.9997,"raan_deg":11.9742,"arg_perigee_deg":268.0931,"mean_anomaly_deg":91.9917,"bstar":-2.5486e-5,"rev_number":17973,"period_min":96.106598684205,"perigee_km":570.14891790324,"apogee_km":573.92425219464,"semimajor_km":6950.1735850489,"source":"CELESTRAK","updated_at":"2026-05-25T13:38:17.847463Z"}}}